Time,TemperatureF,DewpointF,PressureIn,WindDirection,WindDirectionDegrees,WindSpeedMPH,WindSpeedGustMPH,Humidity,HourlyPrecipIn,Conditions,Clouds,dailyrainin,SoftwareType,DateUTC
2013-03-09 00:00:00,25.5,20.8,30.30,WNW,300,9.0,14.0,82,0.00,,---,0.00,VWS V14.01,2013-03-09 05:00:00,
2013-03-09 00:01:00,25.6,20.9,30.30,NW,317,9.0,14.0,82,0.00,,---,0.00,VWS V14.01,2013-03-09 05:01:00,
2013-03-09 00:03:00,25.6,20.9,30.30,WNW,301,8.0,13.0,82,0.00,,---,0.00,VWS V14.01,2013-03-09 05:03:00,
2013-03-09 00:08:00,25.5,20.8,30.31,WNW,291,6.0,11.0,82,0.00,,---,0.00,VWS V14.01,2013-03-09 05:08:00,
2013-03-09 00:14:00,25.4,20.7,30.31,NW,310,8.0,13.0,82,0.00,,---,0.00,VWS V14.01,2013-03-09 05:14:00,
2013-03-09 00:19:00,25.4,20.7,30.31,NW,315,7.0,15.0,82,0.00,,---,0.00,VWS V14.01,2013-03-09 05:19:00,
2013-03-09 00:24:00,25.2,20.5,30.31,WNW,302,8.0,12.0,82,0.00,,---,0.00,VWS V14.01,2013-03-09 05:24:00,
2013-03-09 00:29:00,25.2,20.5,30.31,NW,307,9.0,14.0,82,0.00,,---,0.00,VWS V14.01,2013-03-09 05:29:00,
2013-03-09 00:30:00,25.2,20.5,30.31,WNW,295,10.0,14.0,82,0.00,,---,0.00,VWS V14.01,2013-03-09 05:30:00,
2013-03-09 00:35:00,25.1,20.4,30.30,WNW,295,14.0,14.0,82,0.00,,---,0.00,VWS V14.01,2013-03-09 05:35:00,
2013-03-09 00:40:00,24.8,20.4,30.30,NW,308,13.0,13.0,83,0.00,,---,0.00,VWS V14.01,2013-03-09 05:40:00,
2013-03-09 00:45:00,24.7,20.3,30.30,WNW,293,6.0,12.0,83,0.00,,---,0.00,VWS V14.01,2013-03-09 05:45:00,
2013-03-09 00:50:00,24.6,20.2,30.31,NW,305,8.0,14.0,83,0.00,,---,0.00,VWS V14.01,2013-03-09 05:50:00,
2013-03-09 00:55:00,24.6,20.2,30.31,WNW,300,7.0,11.0,83,0.00,,---,0.00,VWS V14.01,2013-03-09 05:55:00,
2013-03-09 01:00:00,24.6,20.5,30.31,WNW,297,4.0,11.0,84,0.00,,---,0.00,VWS V14.01,2013-03-09 06:00:00,
2013-03-09 01:05:00,24.4,20.3,30.30,WNW,303,6.0,7.0,84,0.00,,---,0.00,VWS V14.01,2013-03-09 06:05:00,
2013-03-09 01:10:00,24.3,20.2,30.31,WNW,298,10.0,12.0,84,0.00,,---,0.00,VWS V14.01,2013-03-09 06:10:00,
2013-03-09 01:15:00,24.3,20.2,30.31,NW,304,6.0,12.0,84,0.00,,---,0.00,VWS V14.01,2013-03-09 06:15:00,
2013-03-09 01:20:00,24.2,20.1,30.31,NW,310,13.0,13.0,84,0.00,,---,0.00,VWS V14.01,2013-03-09 06:20:00,
2013-03-09 01:25:00,24.3,20.2,30.31,NW,304,7.0,13.0,84,0.00,,---,0.00,VWS V14.01,2013-03-09 06:25:00,
2013-03-09 01:30:00,24.2,20.1,30.31,NW,307,6.0,12.0,84,0.00,,---,0.00,VWS V14.01,2013-03-09 06:30:00,
2013-03-09 01:35:00,24.2,20.1,30.31,NW,325,8.0,16.0,84,0.00,,---,0.00,VWS V14.01,2013-03-09 06:35:00,
2013-03-09 01:40:00,24.1,20.0,30.31,NW,305,9.0,12.0,84,0.00,,---,0.00,VWS V14.01,2013-03-09 06:40:00,
2013-03-09 01:45:00,24.0,19.9,30.31,NW,322,10.0,12.0,84,0.00,,---,0.00,VWS V14.01,2013-03-09 06:45:00,
2013-03-09 01:50:00,24.0,19.9,30.31,NW,307,7.0,12.0,84,0.00,,---,0.00,VWS V14.01,2013-03-09 06:50:00,
2013-03-09 01:55:00,23.9,19.8,30.31,WNW,293,9.0,13.0,84,0.00,,---,0.00,VWS V14.01,2013-03-09 06:55:00,
2013-03-09 02:00:00,24.0,19.9,30.30,WNW,301,5.0,13.0,84,0.00,,---,0.00,VWS V14.01,2013-03-09 07:00:00,
2013-03-09 02:05:00,24.0,19.9,30.30,NW,311,7.0,13.0,84,0.00,,---,0.00,VWS V14.01,2013-03-09 07:05:00,
2013-03-09 02:10:00,23.9,19.8,30.30,NW,314,7.0,14.0,84,0.00,,---,0.00,VWS V14.01,2013-03-09 07:10:00,
2013-03-09 02:15:00,23.9,19.8,30.30,NW,316,6.0,11.0,84,0.00,,---,0.00,VWS V14.01,2013-03-09 07:15:00,
2013-03-09 02:20:00,23.9,19.8,30.30,NW,304,6.0,12.0,84,0.00,,---,0.00,VWS V14.01,2013-03-09 07:20:00,
2013-03-09 02:25:00,23.8,19.7,30.30,NW,319,8.0,12.0,84,0.00,,---,0.00,VWS V14.01,2013-03-09 07:25:00,
2013-03-09 02:30:00,23.7,19.6,30.30,WNW,294,6.0,10.0,84,0.00,,---,0.00,VWS V14.01,2013-03-09 07:30:00,
2013-03-09 02:35:00,23.5,19.7,30.29,NW,311,6.0,10.0,85,0.00,,---,0.00,VWS V14.01,2013-03-09 07:35:00,
2013-03-09 02:40:00,23.5,19.7,30.29,WNW,301,7.0,10.0,85,0.00,,---,0.00,VWS V14.01,2013-03-09 07:40:00,
2013-03-09 02:45:00,23.4,19.6,30.29,NW,305,6.0,9.0,85,0.00,,---,0.00,VWS V14.01,2013-03-09 07:45:00,
2013-03-09 02:50:00,23.2,19.4,30.29,WNW,300,5.0,8.0,85,0.00,,---,0.00,VWS V14.01,2013-03-09 07:50:00,
2013-03-09 02:55:00,23.0,19.2,30.28,NW,305,4.0,7.0,85,0.00,,---,0.00,VWS V14.01,2013-03-09 07:55:00,
2013-03-09 03:00:00,22.9,19.1,30.28,WNW,300,5.0,8.0,85,0.00,,---,0.00,VWS V14.01,2013-03-09 08:00:00,
2013-03-09 03:06:00,22.9,19.4,30.29,WNW,297,5.0,9.0,86,0.00,,---,0.00,VWS V14.01,2013-03-09 08:06:00,
2013-03-09 03:11:00,22.9,19.4,30.29,NNW,333,4.0,8.0,86,0.00,,---,0.00,VWS V14.01,2013-03-09 08:11:00,
2013-03-09 03:16:00,22.7,19.1,30.29,WNW,300,6.0,7.0,86,0.00,,---,0.00,VWS V14.01,2013-03-09 08:16:00,
2013-03-09 03:21:00,22.6,19.0,30.29,NW,307,8.0,10.0,86,0.00,,---,0.00,VWS V14.01,2013-03-09 08:21:00,
2013-03-09 03:26:00,22.8,19.2,30.29,NW,305,6.0,9.0,86,0.00,,---,0.00,VWS V14.01,2013-03-09 08:26:00,
2013-03-09 03:31:00,22.8,19.0,30.29,WNW,292,6.0,10.0,85,0.00,,---,0.00,VWS V14.01,2013-03-09 08:31:00,
2013-03-09 03:36:00,22.7,19.1,30.29,NW,326,8.0,12.0,86,0.00,,---,0.00,VWS V14.01,2013-03-09 08:36:00,
2013-03-09 03:41:00,22.7,19.1,30.29,NW,308,7.0,11.0,86,0.00,,---,0.00,VWS V14.01,2013-03-09 08:41:00,
2013-03-09 03:46:00,22.6,19.0,30.29,NNW,332,7.0,13.0,86,0.00,,---,0.00,VWS V14.01,2013-03-09 08:46:00,
2013-03-09 03:51:00,22.6,19.0,30.29,NW,308,5.0,12.0,86,0.00,,---,0.00,VWS V14.01,2013-03-09 08:51:00,
2013-03-09 03:57:00,22.5,19.0,30.30,NW,307,6.0,14.0,86,0.00,,---,0.00,VWS V14.01,2013-03-09 08:57:00,
2013-03-09 04:02:00,22.7,19.1,30.30,NW,312,10.0,13.0,86,0.00,,---,0.00,VWS V14.01,2013-03-09 09:02:00,
2013-03-09 04:07:00,22.7,19.1,30.30,NW,316,7.0,13.0,86,0.00,,---,0.00,VWS V14.01,2013-03-09 09:07:00,
2013-03-09 04:12:00,22.7,19.1,30.30,NW,313,9.0,12.0,86,0.00,,---,0.00,VWS V14.01,2013-03-09 09:12:00,
2013-03-09 04:17:00,22.8,19.0,30.31,NW,314,8.0,14.0,85,0.00,,---,0.00,VWS V14.01,2013-03-09 09:17:00,
2013-03-09 04:22:00,22.9,19.1,30.31,NW,308,11.0,14.0,85,0.00,,---,0.00,VWS V14.01,2013-03-09 09:22:00,
2013-03-09 04:27:00,22.8,19.0,30.31,NW,321,9.0,14.0,85,0.00,,---,0.00,VWS V14.01,2013-03-09 09:27:00,
2013-03-09 04:32:00,22.7,19.1,30.31,NW,305,9.0,17.0,86,0.00,,---,0.00,VWS V14.01,2013-03-09 09:32:00,
2013-03-09 04:37:00,22.7,19.1,30.31,NW,308,10.0,16.0,86,0.00,,---,0.00,VWS V14.01,2013-03-09 09:37:00,
2013-03-09 04:42:00,22.8,19.0,30.31,NW,312,9.0,15.0,85,0.00,,---,0.00,VWS V14.01,2013-03-09 09:42:00,
2013-03-09 04:47:00,22.7,18.9,30.31,NW,319,9.0,13.0,85,0.00,,---,0.00,VWS V14.01,2013-03-09 09:47:00,
2013-03-09 04:52:00,22.7,18.9,30.31,NW,312,9.0,15.0,85,0.00,,---,0.00,VWS V14.01,2013-03-09 09:52:00,
2013-03-09 04:57:00,22.7,19.1,30.32,NW,308,10.0,15.0,86,0.00,,---,0.00,VWS V14.01,2013-03-09 09:57:00,
2013-03-09 05:02:00,22.7,18.9,30.32,NNW,329,14.0,15.0,85,0.00,,---,0.00,VWS V14.01,2013-03-09 10:02:00,
2013-03-09 05:07:00,22.7,18.9,30.32,NW,310,7.0,14.0,85,0.00,,---,0.00,VWS V14.01,2013-03-09 10:07:00,
2013-03-09 05:13:00,22.6,18.8,30.32,NW,322,10.0,12.0,85,0.00,,---,0.00,VWS V14.01,2013-03-09 10:13:00,
2013-03-09 05:18:00,22.5,18.7,30.32,NNW,330,7.0,11.0,85,0.00,,---,0.00,VWS V14.01,2013-03-09 10:18:00,
2013-03-09 05:23:00,22.4,18.6,30.32,NW,306,7.0,12.0,85,0.00,,---,0.00,VWS V14.01,2013-03-09 10:23:00,
2013-03-09 05:28:00,22.4,18.6,30.32,NW,308,6.0,11.0,85,0.00,,---,0.00,VWS V14.01,2013-03-09 10:28:00,
2013-03-09 05:33:00,22.3,18.8,30.32,NW,320,8.0,10.0,86,0.00,,---,0.00,VWS V14.01,2013-03-09 10:33:00,
2013-03-09 05:38:00,22.3,18.5,30.32,NW,315,6.0,12.0,85,0.00,,---,0.00,VWS V14.01,2013-03-09 10:38:00,
2013-03-09 05:43:00,22.2,18.4,30.32,NW,318,9.0,11.0,85,0.00,,---,0.00,VWS V14.01,2013-03-09 10:43:00,
2013-03-09 05:49:00,22.2,18.4,30.33,NW,304,6.0,9.0,85,0.00,,---,0.00,VWS V14.01,2013-03-09 10:49:00,
2013-03-09 05:54:00,22.1,18.6,30.33,NNW,332,7.0,11.0,86,0.00,,---,0.00,VWS V14.01,2013-03-09 10:54:00,
2013-03-09 05:59:00,22.1,18.6,30.33,NW,316,7.0,12.0,86,0.00,,---,0.00,VWS V14.01,2013-03-09 10:59:00,
2013-03-09 06:05:00,22.1,18.3,30.33,NW,317,6.0,10.0,85,0.00,,---,0.00,VWS V14.01,2013-03-09 11:05:00,
2013-03-09 06:10:00,22.0,18.5,30.33,NW,318,8.0,11.0,86,0.00,,---,0.00,VWS V14.01,2013-03-09 11:10:00,
2013-03-09 06:15:00,22.1,18.3,30.33,NW,311,7.0,10.0,85,0.00,,---,0.00,VWS V14.01,2013-03-09 11:15:00,
2013-03-09 06:20:00,22.2,18.4,30.34,NW,316,6.0,10.0,85,0.00,,---,0.00,VWS V14.01,2013-03-09 11:20:00,
2013-03-09 06:26:00,22.3,18.5,30.33,NNW,333,7.0,9.0,85,0.00,,---,0.00,VWS V14.01,2013-03-09 11:26:00,
2013-03-09 06:31:00,22.1,18.3,30.33,NW,315,3.0,8.0,85,0.00,,---,0.00,VWS V14.01,2013-03-09 11:31:00,
2013-03-09 06:36:00,22.3,18.5,30.34,NNW,328,6.0,8.0,85,0.00,,---,0.00,VWS V14.01,2013-03-09 11:36:00,
2013-03-09 06:41:00,22.4,18.6,30.34,NW,319,5.0,8.0,85,0.00,,---,0.00,VWS V14.01,2013-03-09 11:41:00,
2013-03-09 06:46:00,22.5,18.4,30.33,NW,314,6.0,9.0,84,0.00,,---,0.00,VWS V14.01,2013-03-09 11:46:00,
2013-03-09 06:51:00,22.7,18.6,30.34,NW,304,6.0,10.0,84,0.00,,---,0.00,VWS V14.01,2013-03-09 11:51:00,
2013-03-09 06:56:00,22.7,18.6,30.34,NW,310,8.0,9.0,84,0.00,,---,0.00,VWS V14.01,2013-03-09 11:56:00,
2013-03-09 07:01:00,22.9,18.8,30.34,NW,310,5.0,9.0,84,0.00,,---,0.00,VWS V14.01,2013-03-09 12:01:00,
2013-03-09 07:06:00,23.0,18.9,30.34,NW,316,6.0,9.0,84,0.00,,---,0.00,VWS V14.01,2013-03-09 12:06:00,
2013-03-09 07:11:00,23.3,18.9,30.34,NW,308,9.0,11.0,83,0.00,,---,0.00,VWS V14.01,2013-03-09 12:11:00,
2013-03-09 07:16:00,23.5,19.1,30.34,NW,316,6.0,11.0,83,0.00,,---,0.00,VWS V14.01,2013-03-09 12:16:00,
2013-03-09 07:21:00,23.7,19.0,30.34,WNW,302,8.0,9.0,82,0.00,,---,0.00,VWS V14.01,2013-03-09 12:21:00,
2013-03-09 07:26:00,23.8,19.1,30.34,NW,315,10.0,11.0,82,0.00,,---,0.00,VWS V14.01,2013-03-09 12:26:00,
2013-03-09 07:31:00,24.2,19.2,30.34,NW,305,8.0,13.0,81,0.00,,---,0.00,VWS V14.01,2013-03-09 12:31:00,
2013-03-09 07:36:00,24.5,19.5,30.34,WNW,301,13.0,15.0,81,0.00,,---,0.00,VWS V14.01,2013-03-09 12:36:00,
2013-03-09 07:41:00,24.8,19.5,30.35,NW,318,8.0,13.0,80,0.00,,---,0.00,VWS V14.01,2013-03-09 12:41:00,
2013-03-09 07:46:00,25.1,19.8,30.35,NW,310,10.0,15.0,80,0.00,,---,0.00,VWS V14.01,2013-03-09 12:46:00,
2013-03-09 07:52:00,25.3,19.7,30.35,WNW,298,8.0,15.0,79,0.00,,---,0.00,VWS V14.01,2013-03-09 12:52:00,
2013-03-09 07:57:00,25.5,19.9,30.35,NW,315,13.0,13.0,79,0.00,,---,0.00,VWS V14.01,2013-03-09 12:57:00,
2013-03-09 08:02:00,25.8,19.9,30.35,NW,305,8.0,14.0,78,0.00,,---,0.00,VWS V14.01,2013-03-09 13:02:00,
2013-03-09 08:07:00,26.0,20.1,30.35,NW,308,14.0,15.0,78,0.00,,---,0.00,VWS V14.01,2013-03-09 13:07:00,
2013-03-09 08:12:00,26.2,20.3,30.35,NW,308,10.0,16.0,78,0.00,,---,0.00,VWS V14.01,2013-03-09 13:12:00,
2013-03-09 08:17:00,26.3,20.4,30.35,NW,319,11.0,16.0,78,0.00,,---,0.00,VWS V14.01,2013-03-09 13:17:00,
2013-03-09 08:22:00,26.4,20.2,30.36,NNW,340,10.0,17.0,77,0.00,,---,0.00,VWS V14.01,2013-03-09 13:22:00,
2013-03-09 08:27:00,26.6,20.4,30.35,NNW,330,11.0,15.0,77,0.00,,---,0.00,VWS V14.01,2013-03-09 13:27:00,
2013-03-09 08:32:00,26.8,20.6,30.36,NW,314,9.0,12.0,77,0.00,,---,0.00,VWS V14.01,2013-03-09 13:32:00,
2013-03-09 08:37:00,27.0,20.5,30.36,NNW,328,12.0,15.0,76,0.00,,---,0.00,VWS V14.01,2013-03-09 13:37:00,
2013-03-09 08:42:00,27.3,20.4,30.36,NW,314,11.0,15.0,75,0.00,,---,0.00,VWS V14.01,2013-03-09 13:42:00,
2013-03-09 08:47:00,27.7,20.8,30.36,WNW,300,9.0,14.0,75,0.00,,---,0.00,VWS V14.01,2013-03-09 13:47:00,
2013-03-09 08:52:00,28.1,20.9,30.36,NW,305,5.0,15.0,74,0.00,,---,0.00,VWS V14.01,2013-03-09 13:52:00,
2013-03-09 08:57:00,28.3,20.8,30.36,NNW,332,10.0,13.0,73,0.00,,---,0.00,VWS V14.01,2013-03-09 13:57:00,
2013-03-09 09:02:00,28.6,21.1,30.36,NW,312,6.0,13.0,73,0.00,,---,0.00,VWS V14.01,2013-03-09 14:02:00,
2013-03-09 09:07:00,28.7,21.1,30.36,NW,315,7.0,11.0,73,0.00,,---,0.00,VWS V14.01,2013-03-09 14:07:00,
2013-03-09 09:12:00,28.9,21.4,30.36,WNW,302,7.0,10.0,73,0.00,,---,0.00,VWS V14.01,2013-03-09 14:12:00,
2013-03-09 09:17:00,29.2,21.3,30.36,NNW,333,6.0,11.0,72,0.00,,---,0.00,VWS V14.01,2013-03-09 14:17:00,
2013-03-09 09:22:00,29.5,21.6,30.36,NW,322,6.0,10.0,72,0.00,,---,0.00,VWS V14.01,2013-03-09 14:22:00,
2013-03-09 09:27:00,29.8,21.6,30.36,NW,316,6.0,10.0,71,0.00,,---,0.00,VWS V14.01,2013-03-09 14:27:00,
2013-03-09 09:33:00,30.2,21.6,30.36,NNW,333,6.0,10.0,70,0.00,,---,0.00,VWS V14.01,2013-03-09 14:33:00,
2013-03-09 09:38:00,30.4,21.8,30.36,NW,320,8.0,12.0,70,0.00,,---,0.00,VWS V14.01,2013-03-09 14:38:00,
2013-03-09 09:43:00,30.9,21.9,30.36,NW,318,6.0,9.0,69,0.00,,---,0.00,VWS V14.01,2013-03-09 14:43:00,
2013-03-09 09:48:00,31.2,21.9,30.36,NW,316,7.0,9.0,68,0.00,,---,0.00,VWS V14.01,2013-03-09 14:48:00,
2013-03-09 09:53:00,31.6,21.9,30.36,NW,323,9.0,11.0,67,0.00,,---,0.00,VWS V14.01,2013-03-09 14:53:00,
2013-03-09 09:58:00,32.0,21.6,30.36,WNW,300,8.0,11.0,65,0.00,,---,0.00,VWS V14.01,2013-03-09 14:58:00,
2013-03-09 10:03:00,32.3,21.5,30.36,NNW,330,10.0,12.0,64,0.00,,---,0.00,VWS V14.01,2013-03-09 15:03:00,
2013-03-09 10:09:00,32.9,21.3,30.36,WNW,302,8.0,12.0,62,0.00,,---,0.00,VWS V14.01,2013-03-09 15:09:00,
2013-03-09 10:14:00,33.2,22.0,30.36,NW,314,8.0,12.0,63,0.00,,---,0.00,VWS V14.01,2013-03-09 15:14:00,
2013-03-09 10:19:00,33.5,21.5,30.36,NW,311,7.0,13.0,61,0.00,,---,0.00,VWS V14.01,2013-03-09 15:19:00,
2013-03-09 10:24:00,33.6,22.0,30.36,NNW,346,8.0,14.0,62,0.00,,---,0.00,VWS V14.01,2013-03-09 15:24:00,
2013-03-09 10:29:00,33.9,22.3,30.36,NW,309,9.0,13.0,62,0.00,,---,0.00,VWS V14.01,2013-03-09 15:29:00,
2013-03-09 10:34:00,34.3,22.3,30.36,NW,305,9.0,13.0,61,0.00,,---,0.00,VWS V14.01,2013-03-09 15:34:00,
2013-03-09 10:39:00,34.8,22.0,30.36,WNW,302,12.0,15.0,59,0.00,,---,0.00,VWS V14.01,2013-03-09 15:39:00,
2013-03-09 10:44:00,35.0,21.7,30.36,NW,318,9.0,14.0,58,0.00,,---,0.00,VWS V14.01,2013-03-09 15:44:00,
2013-03-09 10:50:00,35.7,22.0,30.36,NNW,336,7.0,14.0,57,0.00,,---,0.00,VWS V14.01,2013-03-09 15:50:00,
2013-03-09 10:55:00,35.8,22.5,30.36,NNW,328,7.0,14.0,58,0.00,,---,0.00,VWS V14.01,2013-03-09 15:55:00,
2013-03-09 11:00:00,35.9,22.2,30.36,North,356,7.0,14.0,57,0.00,,---,0.00,VWS V14.01,2013-03-09 16:00:00,
2013-03-09 11:06:00,36.2,22.0,30.36,NW,326,7.0,12.0,56,0.00,,---,0.00,VWS V14.01,2013-03-09 16:06:00,
2013-03-09 11:11:00,36.2,22.5,30.35,NW,316,6.0,12.0,57,0.00,,---,0.00,VWS V14.01,2013-03-09 16:11:00,
2013-03-09 11:16:00,36.2,22.0,30.36,NW,323,8.0,12.0,56,0.00,,---,0.00,VWS V14.01,2013-03-09 16:16:00,
2013-03-09 11:21:00,36.5,22.7,30.36,NNW,345,4.0,11.0,57,0.00,,---,0.00,VWS V14.01,2013-03-09 16:21:00,
2013-03-09 11:26:00,37.2,22.1,30.36,NW,326,4.0,14.0,54,0.00,,---,0.00,VWS V14.01,2013-03-09 16:26:00,
2013-03-09 11:31:00,37.5,21.9,30.35,NNW,345,5.0,11.0,53,0.00,,---,0.00,VWS V14.01,2013-03-09 16:31:00,
2013-03-09 11:36:00,37.9,23.2,30.35,North,356,8.0,11.0,55,0.00,,---,0.00,VWS V14.01,2013-03-09 16:36:00,
2013-03-09 11:41:00,38.2,21.7,30.36,NW,314,7.0,12.0,51,0.00,,---,0.00,VWS V14.01,2013-03-09 16:41:00,
2013-03-09 11:46:00,38.3,22.2,30.36,NW,316,9.0,12.0,52,0.01,,---,0.01,VWS V14.01,2013-03-09 16:46:00,
2013-03-09 11:52:00,38.3,22.7,30.35,WNW,302,6.0,11.0,53,0.01,,---,0.01,VWS V14.01,2013-03-09 16:52:00,
2013-03-09 11:57:00,37.9,22.3,30.35,WNW,302,10.0,14.0,53,0.01,,---,0.01,VWS V14.01,2013-03-09 16:57:00,
2013-03-09 12:02:00,38.0,22.9,30.35,NW,314,8.0,13.0,54,0.01,,---,0.01,VWS V14.01,2013-03-09 17:02:00,
2013-03-09 12:07:00,38.1,22.0,30.35,WNW,302,12.0,13.0,52,0.01,,---,0.01,VWS V14.01,2013-03-09 17:07:00,
2013-03-09 12:12:00,38.3,22.7,30.35,WNW,284,9.0,14.0,53,0.01,,---,0.01,VWS V14.01,2013-03-09 17:12:00,
2013-03-09 12:17:00,38.7,22.6,30.35,WSW,239,7.0,14.0,52,0.01,,---,0.01,VWS V14.01,2013-03-09 17:17:00,
2013-03-09 12:23:00,38.9,22.3,30.35,NNW,334,3.0,12.0,51,0.01,,---,0.01,VWS V14.01,2013-03-09 17:23:00,
2013-03-09 12:29:00,39.5,23.4,30.34,WNW,295,6.0,12.0,52,0.01,,---,0.01,VWS V14.01,2013-03-09 17:29:00,
2013-03-09 12:34:00,40.0,22.4,30.34,NNW,330,3.0,10.0,49,0.01,,---,0.01,VWS V14.01,2013-03-09 17:34:00,
2013-03-09 12:40:00,40.0,21.4,30.34,North,350,7.0,13.0,47,0.01,,---,0.01,VWS V14.01,2013-03-09 17:40:00,
2013-03-09 12:46:00,40.7,22.1,30.34,NW,314,7.0,9.0,47,0.00,,---,0.01,VWS V14.01,2013-03-09 17:46:00,
2013-03-09 12:51:00,40.4,22.3,30.33,NW,326,6.0,12.0,48,0.00,,---,0.01,VWS V14.01,2013-03-09 17:51:00,
2013-03-09 12:57:00,40.3,22.2,30.33,NNW,338,7.0,12.0,48,0.00,,---,0.01,VWS V14.01,2013-03-09 17:57:00,
2013-03-09 13:03:00,40.6,22.0,30.33,NW,326,6.0,11.0,47,0.00,,---,0.01,VWS V14.01,2013-03-09 18:03:00,
2013-03-09 13:09:00,40.9,22.2,30.32,WNW,300,9.0,12.0,47,0.00,,---,0.01,VWS V14.01,2013-03-09 18:09:00,
2013-03-09 13:14:00,41.2,22.0,30.32,NW,326,7.0,13.0,46,0.00,,---,0.01,VWS V14.01,2013-03-09 18:14:00,
2013-03-09 13:20:00,41.5,22.3,30.31,NW,319,9.0,9.0,46,0.00,,---,0.01,VWS V14.01,2013-03-09 18:20:00,
2013-03-09 13:25:00,41.7,22.5,30.31,NW,326,5.0,9.0,46,0.00,,---,0.01,VWS V14.01,2013-03-09 18:25:00,
2013-03-09 13:30:00,42.2,22.4,30.31,NW,308,3.0,8.0,45,0.00,,---,0.01,VWS V14.01,2013-03-09 18:30:00,
2013-03-09 13:35:00,42.6,21.7,30.31,NW,319,4.0,10.0,43,0.00,,---,0.01,VWS V14.01,2013-03-09 18:35:00,
2013-03-09 13:40:00,43.0,22.0,30.31,WNW,290,6.0,7.0,43,0.00,,---,0.01,VWS V14.01,2013-03-09 18:40:00,
2013-03-09 13:45:00,43.1,21.6,30.31,NNW,328,4.0,9.0,42,0.00,,---,0.01,VWS V14.01,2013-03-09 18:45:00,
2013-03-09 13:50:00,43.2,20.5,30.31,NNW,342,4.0,10.0,40,0.00,,---,0.01,VWS V14.01,2013-03-09 18:50:00,
2013-03-09 13:55:00,43.2,21.7,30.31,NW,315,9.0,11.0,42,0.00,,---,0.01,VWS V14.01,2013-03-09 18:55:00,
2013-03-09 14:00:00,43.3,20.6,30.31,NW,322,6.0,10.0,40,0.00,,---,0.01,VWS V14.01,2013-03-09 19:00:00,
2013-03-09 14:05:00,43.1,21.0,30.31,NW,309,11.0,11.0,41,0.00,,---,0.01,VWS V14.01,2013-03-09 19:05:00,
2013-03-09 14:10:00,43.1,21.6,30.31,NW,321,8.0,11.0,42,0.00,,---,0.01,VWS V14.01,2013-03-09 19:10:00,
2013-03-09 14:16:00,43.1,21.6,30.31,WNW,302,6.0,11.0,42,0.00,,---,0.01,VWS V14.01,2013-03-09 19:16:00,
2013-03-09 14:21:00,43.2,21.1,30.31,NW,322,6.0,10.0,41,0.00,,---,0.01,VWS V14.01,2013-03-09 19:21:00,
2013-03-09 14:26:00,43.4,20.7,30.32,NW,305,7.0,10.0,40,0.00,,---,0.01,VWS V14.01,2013-03-09 19:26:00,
2013-03-09 14:31:00,43.9,21.7,30.32,WNW,300,5.0,8.0,41,0.00,,---,0.01,VWS V14.01,2013-03-09 19:31:00,
2013-03-09 14:37:00,43.9,20.0,30.32,WNW,297,9.0,12.0,38,0.00,,---,0.01,VWS V14.01,2013-03-09 19:37:00,
2013-03-09 14:43:00,44.0,21.8,30.32,NNE,16,7.0,10.0,41,0.00,,---,0.01,VWS V14.01,2013-03-09 19:43:00,
2013-03-09 14:48:00,44.3,20.9,30.32,WNW,298,6.0,11.0,39,0.00,,---,0.01,VWS V14.01,2013-03-09 19:48:00,
2013-03-09 14:54:00,44.2,21.4,30.32,WNW,298,6.0,9.0,40,0.00,,---,0.01,VWS V14.01,2013-03-09 19:54:00,
2013-03-09 14:59:00,44.3,20.9,30.32,NNW,328,10.0,12.0,39,0.00,,---,0.01,VWS V14.01,2013-03-09 19:59:00,
2013-03-09 15:05:00,44.3,19.7,30.33,NW,310,7.0,12.0,37,0.00,,---,0.01,VWS V14.01,2013-03-09 20:05:00,
2013-03-09 15:10:00,44.5,19.9,30.33,NW,304,7.0,10.0,37,0.00,,---,0.01,VWS V14.01,2013-03-09 20:10:00,
2013-03-09 15:16:00,44.4,19.1,30.33,WNW,293,5.0,10.0,36,0.00,,---,0.01,VWS V14.01,2013-03-09 20:16:00,
2013-03-09 15:21:00,44.5,19.9,30.33,WNW,293,6.0,11.0,37,0.00,,---,0.01,VWS V14.01,2013-03-09 20:21:00,
2013-03-09 15:26:00,44.6,20.6,30.33,WNW,288,5.0,12.0,38,0.00,,---,0.01,VWS V14.01,2013-03-09 20:26:00,
2013-03-09 15:31:00,44.7,20.7,30.33,NW,316,8.0,9.0,38,0.00,,---,0.01,VWS V14.01,2013-03-09 20:31:00,
2013-03-09 15:36:00,44.5,19.9,30.33,WNW,285,3.0,9.0,37,0.00,,---,0.01,VWS V14.01,2013-03-09 20:36:00,
2013-03-09 15:42:00,44.5,20.5,30.32,NW,314,4.0,11.0,38,0.00,,---,0.01,VWS V14.01,2013-03-09 20:42:00,
2013-03-09 15:47:00,44.6,20.6,30.32,NNW,332,7.0,8.0,38,0.00,,---,0.01,VWS V14.01,2013-03-09 20:47:00,
2013-03-09 15:52:00,44.6,20.0,30.32,NW,305,6.0,9.0,37,0.00,,---,0.01,VWS V14.01,2013-03-09 20:52:00,
2013-03-09 15:58:00,44.7,21.3,30.32,NNW,335,5.0,9.0,39,0.00,,---,0.01,VWS V14.01,2013-03-09 20:58:00,
2013-03-09 16:03:00,44.7,20.0,30.32,NW,322,6.0,13.0,37,0.00,,---,0.01,VWS V14.01,2013-03-09 21:03:00,
2013-03-09 16:08:00,44.7,21.3,30.32,NW,321,3.0,10.0,39,0.00,,---,0.01,VWS V14.01,2013-03-09 21:08:00,
2013-03-09 16:14:00,44.8,20.8,30.32,WNW,297,5.0,8.0,38,0.00,,---,0.01,VWS V14.01,2013-03-09 21:14:00,
2013-03-09 16:19:00,44.7,20.0,30.32,NW,321,6.0,8.0,37,0.00,,---,0.01,VWS V14.01,2013-03-09 21:19:00,
2013-03-09 16:24:00,44.8,20.8,30.32,NNW,334,4.0,8.0,38,0.00,,---,0.01,VWS V14.01,2013-03-09 21:24:00,
2013-03-09 16:29:00,44.9,20.9,30.32,NNW,329,3.0,8.0,38,0.00,,---,0.01,VWS V14.01,2013-03-09 21:29:00,
2013-03-09 16:35:00,44.9,20.9,30.32,NW,316,4.0,7.0,38,0.00,,---,0.01,VWS V14.01,2013-03-09 21:35:00,
2013-03-09 16:40:00,44.9,20.9,30.32,NW,308,5.0,8.0,38,0.00,,---,0.01,VWS V14.01,2013-03-09 21:40:00,
2013-03-09 16:45:00,44.8,20.8,30.32,NW,311,4.0,7.0,38,0.00,,---,0.01,VWS V14.01,2013-03-09 21:45:00,
2013-03-09 16:50:00,44.7,20.0,30.33,NW,310,4.0,8.0,37,0.00,,---,0.01,VWS V14.01,2013-03-09 21:50:00,
2013-03-09 16:55:00,44.6,21.2,30.33,NW,304,5.0,7.0,39,0.00,,---,0.01,VWS V14.01,2013-03-09 21:55:00,
2013-03-09 17:00:00,44.6,21.2,30.33,NW,321,5.0,7.0,39,0.00,,---,0.01,VWS V14.01,2013-03-09 22:00:00,
2013-03-09 17:05:00,44.5,20.5,30.33,WNW,295,6.0,8.0,38,0.00,,---,0.01,VWS V14.01,2013-03-09 22:05:00,
2013-03-09 17:10:00,44.5,21.1,30.33,NW,316,5.0,7.0,39,0.00,,---,0.01,VWS V14.01,2013-03-09 22:10:00,
2013-03-09 17:15:00,44.3,20.9,30.33,NW,326,4.0,7.0,39,0.00,,---,0.01,VWS V14.01,2013-03-09 22:15:00,
2013-03-09 17:20:00,44.2,21.4,30.33,NW,318,4.0,6.0,40,0.00,,---,0.01,VWS V14.01,2013-03-09 22:20:00,
2013-03-09 17:26:00,43.9,21.7,30.33,NW,322,4.0,7.0,41,0.00,,---,0.01,VWS V14.01,2013-03-09 22:26:00,
2013-03-09 17:31:00,43.8,21.6,30.33,NW,318,3.0,5.0,41,0.00,,---,0.01,VWS V14.01,2013-03-09 22:31:00,
2013-03-09 17:37:00,43.4,21.3,30.33,NNW,330,3.0,5.0,41,0.00,,---,0.01,VWS V14.01,2013-03-09 22:37:00,
2013-03-09 17:42:00,42.9,21.4,30.33,NW,322,3.0,5.0,42,0.00,,---,0.01,VWS V14.01,2013-03-09 22:42:00,
2013-03-09 17:47:00,42.2,21.3,30.34,NW,322,4.0,5.0,43,0.00,,---,0.01,VWS V14.01,2013-03-09 22:47:00,
2013-03-09 17:52:00,41.3,22.1,30.34,NW,314,4.0,5.0,46,0.00,,---,0.01,VWS V14.01,2013-03-09 22:52:00,
2013-03-09 17:58:00,40.8,21.1,30.34,NW,324,3.0,6.0,45,0.00,,---,0.01,VWS V14.01,2013-03-09 22:58:00,
2013-03-09 18:03:00,40.7,21.0,30.34,NW,322,3.0,5.0,45,0.00,,---,0.01,VWS V14.01,2013-03-09 23:03:00,
2013-03-09 18:08:00,40.3,21.2,30.33,NW,322,2.0,3.0,46,0.00,,---,0.01,VWS V14.01,2013-03-09 23:08:00,
2013-03-09 18:13:00,39.9,20.8,30.34,NW,319,1.0,3.0,46,0.00,,---,0.01,VWS V14.01,2013-03-09 23:13:00,
2013-03-09 18:18:00,39.2,21.2,30.34,NW,323,2.0,3.0,48,0.00,,---,0.01,VWS V14.01,2013-03-09 23:18:00,
2013-03-09 18:23:00,38.6,21.1,30.34,NW,323,0.0,1.0,49,0.00,,---,0.01,VWS V14.01,2013-03-09 23:23:00,
2013-03-09 18:28:00,38.0,21.5,30.34,NW,323,0.0,1.0,51,0.00,,---,0.01,VWS V14.01,2013-03-09 23:28:00,
2013-03-09 18:33:00,37.9,20.9,30.34,NW,315,2.0,2.0,50,0.00,,---,0.01,VWS V14.01,2013-03-09 23:33:00,
2013-03-09 18:38:00,38.1,21.1,30.34,North,1,2.0,3.0,50,0.00,,---,0.01,VWS V14.01,2013-03-09 23:38:00,
2013-03-09 18:43:00,38.2,21.2,30.34,North,359,2.0,3.0,50,0.00,,---,0.01,VWS V14.01,2013-03-09 23:43:00,
2013-03-09 18:48:00,38.4,20.9,30.34,NNW,335,3.0,4.0,49,0.00,,---,0.01,VWS V14.01,2013-03-09 23:48:00,
2013-03-09 18:53:00,38.0,21.5,30.34,North,352,1.0,4.0,51,0.00,,---,0.01,VWS V14.01,2013-03-09 23:53:00,
2013-03-09 18:59:00,37.4,20.5,30.34,North,11,2.0,2.0,50,0.00,,---,0.01,VWS V14.01,2013-03-09 23:59:00,
2013-03-09 19:04:00,37.8,20.8,30.33,NNE,15,2.0,4.0,50,0.00,,---,0.01,VWS V14.01,2013-03-10 00:04:00,
2013-03-09 19:10:00,37.9,20.9,30.34,NNW,328,1.0,4.0,50,0.00,,---,0.01,VWS V14.01,2013-03-10 00:10:00,
2013-03-09 19:16:00,37.2,20.8,30.34,WNW,295,2.0,2.0,51,0.00,,---,0.01,VWS V14.01,2013-03-10 00:16:00,
2013-03-09 19:22:00,36.6,20.2,30.33,North,356,0.0,1.0,51,0.00,,---,0.01,VWS V14.01,2013-03-10 00:22:00,
2013-03-09 19:28:00,36.2,20.7,30.34,WNW,295,1.0,1.0,53,0.00,,---,0.01,VWS V14.01,2013-03-10 00:28:00,
2013-03-09 19:33:00,35.7,20.7,30.34,WSW,258,0.0,2.0,54,0.00,,---,0.01,VWS V14.01,2013-03-10 00:33:00,
2013-03-09 19:39:00,34.9,20.4,30.34,West,259,0.0,1.0,55,0.00,,---,0.01,VWS V14.01,2013-03-10 00:39:00,
2013-03-09 19:45:00,34.7,20.6,30.34,West,259,0.0,1.0,56,0.00,,---,0.01,VWS V14.01,2013-03-10 00:45:00,
2013-03-09 19:51:00,34.4,21.2,30.34,NW,324,1.0,2.0,58,0.00,,---,0.01,VWS V14.01,2013-03-10 00:51:00,
2013-03-09 19:56:00,34.4,21.6,30.34,North,350,1.0,1.0,59,0.00,,---,0.01,VWS V14.01,2013-03-10 00:56:00,
2013-03-09 20:01:00,34.6,21.8,30.34,NW,322,1.0,2.0,59,0.00,,---,0.01,VWS V14.01,2013-03-10 01:01:00,
2013-03-09 20:06:00,34.2,21.4,30.34,NNW,334,2.0,2.0,59,0.00,,---,0.01,VWS V14.01,2013-03-10 01:06:00,
2013-03-09 20:11:00,34.4,22.0,30.34,NW,309,1.0,2.0,60,0.00,,---,0.01,VWS V14.01,2013-03-10 01:11:00,
2013-03-09 20:16:00,34.0,22.0,30.34,NW,322,0.0,2.0,61,0.00,,---,0.01,VWS V14.01,2013-03-10 01:16:00,
2013-03-09 20:21:00,34.0,22.4,30.34,NW,314,1.0,2.0,62,0.00,,---,0.01,VWS V14.01,2013-03-10 01:21:00,
2013-03-09 20:27:00,34.0,22.7,30.34,NW,314,0.0,3.0,63,0.00,,---,0.01,VWS V14.01,2013-03-10 01:27:00,
2013-03-09 20:32:00,34.3,22.6,30.34,NW,324,1.0,3.0,62,0.00,,---,0.01,VWS V14.01,2013-03-10 01:32:00,
2013-03-09 20:37:00,33.9,22.6,30.34,NNW,333,1.0,2.0,63,0.00,,---,0.01,VWS V14.01,2013-03-10 01:37:00,
2013-03-09 20:43:00,34.0,23.1,30.34,NNW,332,1.0,2.0,64,0.00,,---,0.01,VWS V14.01,2013-03-10 01:43:00,
2013-03-09 20:48:00,34.4,23.1,30.34,NNW,345,1.0,2.0,63,0.00,,---,0.01,VWS V14.01,2013-03-10 01:48:00,
2013-03-09 20:54:00,34.5,22.8,30.34,NW,309,0.0,3.0,62,0.00,,---,0.01,VWS V14.01,2013-03-10 01:54:00,
2013-03-09 20:59:00,33.9,23.0,30.34,North,7,2.0,2.0,64,0.00,,---,0.01,VWS V14.01,2013-03-10 01:59:00,
2013-03-09 21:04:00,34.5,23.6,30.34,NNW,344,1.0,3.0,64,0.00,,---,0.01,VWS V14.01,2013-03-10 02:04:00,
2013-03-09 21:09:00,34.9,23.6,30.35,NNW,333,0.0,2.0,63,0.00,,---,0.01,VWS V14.01,2013-03-10 02:09:00,
2013-03-09 21:14:00,34.8,23.5,30.35,North,359,1.0,2.0,63,0.00,,---,0.01,VWS V14.01,2013-03-10 02:14:00,
2013-03-09 21:20:00,35.1,23.4,30.35,NW,326,3.0,4.0,62,0.00,,---,0.01,VWS V14.01,2013-03-10 02:20:00,
2013-03-09 21:25:00,34.5,23.2,30.35,WNW,301,0.0,3.0,63,0.00,,---,0.01,VWS V14.01,2013-03-10 02:25:00,
2013-03-09 21:30:00,34.1,23.2,30.35,WNW,290,0.0,2.0,64,0.00,,---,0.01,VWS V14.01,2013-03-10 02:30:00,
2013-03-09 21:36:00,33.7,22.8,30.35,NNW,329,2.0,2.0,64,0.00,,---,0.01,VWS V14.01,2013-03-10 02:36:00,
2013-03-09 21:41:00,33.7,23.2,30.35,NW,316,1.0,3.0,65,0.00,,---,0.01,VWS V14.01,2013-03-10 02:41:00,
2013-03-09 21:46:00,34.0,23.5,30.35,NNW,340,1.0,4.0,65,0.00,,---,0.01,VWS V14.01,2013-03-10 02:46:00,
2013-03-09 21:51:00,34.6,23.3,30.35,NNW,346,1.0,4.0,63,0.00,,---,0.01,VWS V14.01,2013-03-10 02:51:00,
2013-03-09 21:56:00,34.4,23.1,30.35,NNW,329,0.0,3.0,63,0.00,,---,0.01,VWS V14.01,2013-03-10 02:56:00,
2013-03-09 22:01:00,33.7,22.8,30.35,NW,314,2.0,5.0,64,0.00,,---,0.01,VWS V14.01,2013-03-10 03:01:00,
2013-03-09 22:06:00,33.7,22.8,30.35,NW,310,3.0,6.0,64,0.00,,---,0.01,VWS V14.01,2013-03-10 03:06:00,
2013-03-09 22:12:00,33.1,23.0,30.35,WNW,289,0.0,3.0,66,0.00,,---,0.01,VWS V14.01,2013-03-10 03:12:00,
2013-03-09 22:17:00,32.4,23.0,30.35,WNW,290,0.0,1.0,68,0.00,,---,0.01,VWS V14.01,2013-03-10 03:17:00,
2013-03-09 22:22:00,32.3,22.9,30.35,WNW,291,0.0,1.0,68,0.00,,---,0.01,VWS V14.01,2013-03-10 03:22:00,
2013-03-09 22:27:00,32.4,22.7,30.35,NNW,342,0.0,1.0,67,0.00,,---,0.01,VWS V14.01,2013-03-10 03:27:00,
2013-03-09 22:33:00,32.5,22.8,30.35,NNW,342,1.0,1.0,67,0.00,,---,0.01,VWS V14.01,2013-03-10 03:33:00,
2013-03-09 22:38:00,32.6,22.9,30.35,NNW,342,0.0,1.0,67,0.00,,---,0.01,VWS V14.01,2013-03-10 03:38:00,
2013-03-09 22:43:00,32.4,22.7,30.35,NNW,342,0.0,1.0,67,0.00,,---,0.01,VWS V14.01,2013-03-10 03:43:00,
2013-03-09 22:48:00,32.3,22.6,30.35,NNW,342,0.0,0.0,67,0.00,,---,0.01,VWS V14.01,2013-03-10 03:48:00,
2013-03-09 22:53:00,32.7,23.0,30.34,NNW,342,1.0,1.0,67,0.00,,---,0.01,VWS V14.01,2013-03-10 03:53:00,
2013-03-09 22:58:00,33.1,23.0,30.35,NW,314,0.0,2.0,66,0.00,,---,0.01,VWS V14.01,2013-03-10 03:58:00,
2013-03-09 23:03:00,32.8,22.7,30.35,NW,314,0.0,0.0,66,0.00,,---,0.01,VWS V14.01,2013-03-10 04:03:00,
2013-03-09 23:08:00,32.4,22.7,30.35,NW,314,1.0,1.0,67,0.00,,---,0.01,VWS V14.01,2013-03-10 04:08:00,
2013-03-09 23:13:00,32.4,22.7,30.35,WNW,295,1.0,1.0,67,0.00,,---,0.01,VWS V14.01,2013-03-10 04:13:00,
2013-03-09 23:18:00,31.3,22.3,30.35,WNW,295,0.0,1.0,69,0.00,,---,0.01,VWS V14.01,2013-03-10 04:18:00,
2013-03-09 23:23:00,31.3,23.0,30.35,NNW,347,1.0,1.0,71,0.00,,---,0.01,VWS V14.01,2013-03-10 04:23:00,
2013-03-09 23:28:00,32.4,23.4,30.35,NNE,27,2.0,3.0,69,0.00,,---,0.01,VWS V14.01,2013-03-10 04:28:00,
2013-03-09 23:33:00,33.5,23.4,30.35,NNW,345,0.0,2.0,66,0.00,,---,0.01,VWS V14.01,2013-03-10 04:33:00,
2013-03-09 23:38:00,33.5,23.4,30.34,North,354,0.0,2.0,66,0.00,,---,0.01,VWS V14.01,2013-03-10 04:38:00,
2013-03-09 23:43:00,33.2,23.1,30.34,NW,319,1.0,2.0,66,0.00,,---,0.01,VWS V14.01,2013-03-10 04:43:00,
2013-03-09 23:49:00,32.8,23.1,30.34,NNE,18,1.0,2.0,67,0.00,,---,0.01,VWS V14.01,2013-03-10 04:49:00,
2013-03-09 23:54:00,33.9,23.8,30.34,NNE,20,1.0,4.0,66,0.00,,---,0.01,VWS V14.01,2013-03-10 04:54:00,
2013-03-09 23:59:00,34.2,23.3,30.34,ENE,67,2.0,4.0,64,0.00,,---,0.01,VWS V14.01,2013-03-10 04:59:00,